Other Public Products
Issued by NWS Grand Forks, ND

Home | Current Version | Previous Version | Graphics & Text | Print | Product List | Glossary On
Versions: 1 2 3 4 5 6 7 8 9 10 11 12 13 14 15 16 17 18 19 20 21 22 23 24 25 26 27 28 29 30 31 32 33 34 35 36 37 38 39 40 41 42 43 44 45 46 47 48 49 50
000
FPUS83 KFGF 212331
OPUFGF
PRAIRIE TO PINES WEATHER ROUNDUP
NATIONAL WEATHER SERVICE EASTERN NORTH DAKOTA/GRAND FORKS ND
600 PM CDT THU AUG 21 2014

 **SATELLITE DATA USED TO AUGMENT SKY COVER AT AUTOMATED STATIONS**
 *****  WEATHER ACROSS EASTERN NORTH DAKOTA  *****

CITY           SKY/WX    TMP DP  RH WIND       PRES   REMARKS
GRAND FORKS    PTSUNNY   78  68  71 CALM      29.81R
GRAND FORKS AF PTSUNNY   77  70  80 SE6       29.82S
GRAND CITY NWS   N/A     63 N/A N/A MISG        N/A
BUXTON           N/A     78  72  84 CALM        N/A
DEVILS LAKE    MOSUNNY   77  66  69 N12       29.84R
FARGO          CLOUDY    76  71  85 E3        29.81S
WAHPETON ARPT  CLOUDY    79  70  73 E7        29.82S
$$

 *****  WEATHER ACROSS CENTRAL AND WESTERN NORTH DAKOTA  *****

CITY           SKY/WX    TMP DP  RH WIND       PRES   REMARKS
JAMESTOWN      MOSUNNY   79  67  66 NW14      29.84R
BISMARCK       MOSUNNY   82  62  50 N13       29.89S
MINOT          MOSUNNY   76  63  64 N10       29.89R
MINOT AFB      PTSUNNY   75  64  69 N10G18    29.90R
GARRISON         N/A     79  60  52 NW12      29.91R
WILLISTON      PTSUNNY   76  56  49 N8        29.96S
DICKINSON      MOSUNNY   76  60  57 N12       29.95R
HETTINGER      MOSUNNY   80  57  45 N9        29.95R
$$

 *****  OTHER OBSERVATIONS NORTHEAST NORTH DAKOTA  *****

CITY           SKY/WX    TMP DP  RH WIND       PRES   REMARKS
WALHALLA         N/A     72  72 100 NE5       29.85R
LANGDON        CLOUDY    72  68  88 E10       29.86S FOG
CAVALIER       CLOUDY    73  66  78 NE6       29.84R
GRAFTON        MOCLDY    75  68  78 NE7       29.83R
CANDO          FAIR      73  66  78 N12       29.88R
FORT TOTTEN      N/A     80  70  70 NW5       29.95
ROLLA          MOCLDY    70  68  94 N13       29.91R
RUGBY          MOCLDY    73  66  78 N13       29.88R
 ***** THE ABOVE OBSERVATIONS ARE NON NWS ARE NOT QUALITY
        CONTROLLED AND MAY MIS-REPORT RAIN FOR SNOW...
$$

 *****  OTHER OBSERVATIONS SOUTHEAST NORTH DAKOTA *****

CITY           SKY/WX    TMP DP  RH WIND       PRES   REMARKS
COOPERSTOWN    NOT AVBL
VALLEY CITY    MOCLDY    77  70  78 CALM      29.84R
OAKES          NOT AVBL
GWINNER        CLEAR     81  70  69 N6        29.84R
SHEYENNE NWR     N/A     83  70  63 N6        29.95
BUFFALO          N/A     80  63  55 E3          N/A
WYNDMERE       NOT AVBL
 ***** THE ABOVE OBSERVATIONS ARE NON NWS ARE NOT QUALITY
       CONTROLLED AND MAY MIS-REPORT RAIN FOR SNOW...
$$

  *****  WEATHER ACROSS NORTHERN MINNESOTA  *****

CITY           SKY/WX    TMP DP  RH WIND       PRES   REMARKS
FLAG ISLAND    CLOUDY    66  63  88 E6        29.88S
WARROAD        PTSUNNY   68  64  88 E10       29.88R
ROSEAU         MOSUNNY   72  64  78 E8        29.86R
HALLOCK        SUNNY     73  66  78 E10       29.84R
THF RVR FALLS  CLOUDY    75  66  73 SE8       29.84R
HALSTAD          N/A     76  68  75 S6          N/A
FOSSTON        CLOUDY    72  64  78 CALM      29.86R
BAUDETTE       CLOUDY    69  64  84 E12       29.87S
WASKISH        CLOUDY    72  66  83 CALM      29.87R
CROOKSTON      CLOUDY    77  66  69 CALM      29.82S
$$
  *****  WEATHER ACROSS CENTRAL AND WEST MINNESOTA  *****

CITY           SKY/WX    TMP DP  RH WIND       PRES   REMARKS
BEMIDJI        CLOUDY    73  66  80 E6        29.87R
PARK RAPIDS    CLOUDY    72  67  84 S6        29.86R
WADENA         CLOUDY    70  68  94 E5        29.85F
DETROIT LAKES  PTSUNNY   72  68  88 SE8       29.87R
MOORHEAD       PTSUNNY   75  73  94 SE3       29.83R
FERGUS FALLS   CLOUDY    75  66  73 CALM      29.82R
ELBOW LAKE     MOCLDY    75  70  84 E5        29.83S
MORRIS MN      MOSUNNY   82  70  65 NE5       29.82R
STAPLES        CLOUDY    70  66  88 CALM      29.86S
WHEATON        SUNNY     77  68  73 CALM      29.83S
$$
  *****  WEATHER ELSEWHERE ACROSS MINNESOTA  *****

CITY           SKY/WX    TMP DP  RH WIND       PRES   REMARKS
DULUTH         CLOUDY    65  60  84 E10       29.90R
INTRNTL FALLS  CLOUDY    68  62  81 E12       29.90R
ELY            CLOUDY    64  57  77 E3        29.94R
CLOQUET        RAIN      63  61  94 E8        29.90R
BRAINERD       CLOUDY    69  66  90 E6        29.86R
HIBBING        CLOUDY    72  62  71 SE9       29.90R
ALEXANDRIA     CLOUDY    73  69  87 E6        29.86R
SAINT CLOUD    CLOUDY    79  71  76 E6        29.82R
MINNEAPOLIS    MOSUNNY   83  73  72 NE7       29.79S
$$

  *****  WEATHER ACROSS SOUTH DAKOTA  *****

CITY           SKY/WX    TMP DP  RH WIND       PRES   REMARKS
SIOUX FALLS    MOSUNNY   87  70  56 NW10      29.83S HX  92
BROOKINGS      NOT AVBL
WATERTOWN      SUNNY     81  67  62 N13       29.85R
HURON          SUNNY     85  64  49 N10       29.84R
SISSETON         N/A     83  71  67 NE8       29.81R
ABERDEEN       SUNNY     82  66  58 NW14      29.85R
MITCHELL       SUNNY     87  70  56 N6        29.84R HX  92
PIERRE         SUNNY     87  60  40 CALM      29.87R
MOBRIDGE       SUNNY     82  63  52 N10       29.87R
RAPID CITY     PTSUNNY   75  63  66 N7        29.95S
$$

  *****  SOME WEATHER IN NEARBY STATES *****

CITY           SKY/WX    TMP DP  RH WIND       PRES   REMARKS
GLASGOW MT     LGT RAIN  64  59  83 S3        30.01R
GREAT FALLS MT CLOUDY    63  51  65 N10       30.09S
CHEYENNE WY    LGT RAIN  74  45  35 CALM      30.14S
SCOTTSBLUFF NE MOSUNNY   89  43  20 W7        29.99F
OMAHA NE       MOSUNNY   92  69  47 W8        29.84R HX  97
DES MOINES IA  MOSUNNY   87  74  64 S12       29.85S HX  95
DAVENPORT IA   RAIN      77  73  87 SE9       29.90F FOG
CHICAGO IL     PTSUNNY   76  71  85 SE10      29.90F
EAU CLAIRE WI  CLOUDY    78  71  79 S9        29.84S
LA CROSSE WI   MOSUNNY   83  72  69 SE12      29.85R
$$

  *****  SOME NATIONAL WEATHER *****

CITY           SKY/WX    TMP DP  RH WIND       PRES   REMARKS
LA GUARDIA NY  MOCLDY    76  56  49 SE13      30.01S
RALEIGH NC     PTSUNNY   86  68  54 NW3       30.04R
ATLANTA GA     PTSUNNY   82  70  66 W5        30.11R
NEW ORLEANS LA CLOUDY    80  75  84 CALM      30.10F
OKLAHOMA CITY  MOSUNNY   96  68  39 S20       29.91S HX 101
ALBUQUERQUE NM PTSUNNY   88  29  12 S12       30.09F
SALT LAKE CITY PTSUNNY   79  43  27 S9        30.02F
LOS ANGELES CA MOSUNNY   74  61  63 W14       29.91F
BOISE ID       CLOUDY    82  37  20 N8        29.91F
SEATTLE WA     MOSUNNY   68  51  54 W6        30.01F
$$

*** WEATHER ACROSS MANITOBA...SASKATCHEWAN AND ONTARIO ***
                ***ONTARIO***

CITY           SKY/WX    TMP DP  RH WIND       PRES   REMARKS
GERALDTON      PTSUNNY   70  63  78 E6        29.99F
THUNDER BAY    CLOUDY    63  61  94 E10       29.97S
SIOUX LOOKOUT  CLOUDY    70  59  68 S8        29.94R
TORONTO        MOSUNNY   79  63  57 NW12      29.94S
BIG TROUT LK   CLOUDY    72  61  68 S5        29.93S
PICKLE LAKE    CLOUDY    70  59  68 SE7       29.96S
DRYDEN         PTSUNNY   70  59  68 SE6       29.93R
KENORA         CLOUDY    66  63  88 SE2       29.91S
$$
                *** MANITOBA***

CITY           SKY/WX    TMP DP  RH WIND       PRES   REMARKS
BRANDON        LGT RAIN  68  64  88 NE12G20   29.90R
DAUPHIN        CLOUDY    64  61  88 N9        29.95R
ISLAND LAKE    TSTM     N/A N/A N/A NW12        N/A
PILOT MOUND      N/A     66  64  94 NE9         N/A
THE PAS        PTSUNNY   66  55  68 N12       30.00R
THOMPSON       CLOUDY    57  57 100 N7        29.98
WINNIPEG       TSTM      73  70  88 N7        29.85R
LYNN LAKE      CLOUDY    59  52  77 MISG      30.06R
CHURCHILL      CLOUDY    46  45  93 N22       29.95S
GILLAM         CLOUDY   N/A N/A N/A N14         N/A
$$
                ***SASKATCHEWAN***

CITY           SKY/WX    TMP DP  RH WIND       PRES   REMARKS
ESTEVAN        PTSUNNY   72  57  60 N6        29.96S
KINDERSLEY     CLOUDY    61  48  63 N9        30.14S
LLOYDMINSTER   PTSUNNY   59  43  55 N9        30.17R
PRINCE ALBERT  PTSUNNY   63  54  72 N12       30.11R
REGINA         PTSUNNY   66  55  68 N15       30.03R


USA.gov is the U.S. government's official web portal to all federal, state and local government web resources and services.